This demonstration page uses our WeatherBlox Daily Observations layout. Learn more.

39.08367, -84.50855

Hourly Observations for June 8, 2019

Temp ( °F °C ) Dew Point ( °F °C ) Humidity (%) Winds ( mph kmh ) Pressure ( in mb ) Visibility ( mi km ) Precip ( " mm )
12:53 am 00:53 Cloudy 72 22.2 61 16.1 68 68 NE 12 19 29.85 1011 10 16.09344 0 0
1:53 am 01:53 Mostly Cloudy 72 22.2 61 16.1 68 68 ENE 9 15 29.85 1011 10 16.09344 0 0
2:53 am 02:53 Cloudy 71 21.7 61 16.1 71 71 NE 7 11 29.83 1010 10 16.09344 0 0
3:53 am 03:53 Cloudy 71 21.7 62 16.7 73 73 NE 7 11 29.83 1010 10 16.09344 0 0
4:53 am 04:53 Cloudy 71 21.7 63 17.2 76 76 ENE 8 13 29.85 1011 10 16.09344 0 0
5:53 am 05:53 Cloudy 71 21.7 63 17.2 76 76 ENE 9 15 29.85 1011 10 16.09344 0 0
6:53 am 06:53 Cloudy 71 21.7 64 17.8 79 79 ENE 8 13 29.88 1012 10 16.09344 0.001 0.001
7:53 am 07:53 Cloudy 69 20.6 65 18.3 87 87 NE 7 11 29.88 1012 10 16.09344 0.02 0.508
8:53 am 08:53 Mostly Cloudy 71 21.7 66 18.9 84 84 VRB 7 11 29.88 1012 10 16.09344 0 0
9:53 am 09:53 Cloudy 73 22.8 66 18.9 79 79 VRB 6 9 29.88 1012 10 16.09344 0.001 0.001
10:53 am 10:53 Cloudy 74 23.3 65 18.3 74 74 E 9 15 29.88 1012 10 16.09344 0 0
11:53 am 11:53 Cloudy 75 23.9 65 18.3 71 71 E 8 13 29.88 1012 10 16.09344 0 0
12:21 pm 12:21 Cloudy 74 23.3 65 18.3 74 74 E 10 17 29.91 1013 10 16.09344 0 0
12:38 pm 12:38 Cloudy with Light Rain 74 23.3 66 18.9 76 76 ENE 8 13 29.91 1013 10 16.09344 0.001 0.001
12:53 pm 12:53 Cloudy with Light Rain 74 23.3 66 18.9 76 76 E 9 15 29.91 1013 10 16.09344 0.001 0.001
1:53 pm 13:53 Cloudy 75 23.9 66 18.9 74 74 ENE 7 11 29.88 1012 10 16.09344 0.001 0.001
2:03 pm 14:03 Cloudy 74 23.3 65 18.3 74 74 E 15 24 29.91 1013 10 16.09344 0 0
2:34 pm 14:34 Cloudy with Light Rain 72 22.2 67 19.4 84 84 ENE 10 17 29.91 1013 10 16.09344 0.01 0.254
2:51 pm 14:51 Cloudy with Light Rain 73 23 68 20 83 83 ENE 9 15 29.91 1013 9 14.484096 0.01 0.254
2:53 pm 14:53 Cloudy with Light Rain 73 22.8 68 20 84 84 E 9 15 29.88 1012 8 12.874752 0.01 0.254
3:53 pm 15:53 Cloudy with Light Rain 74 23.3 68 20 82 82 ENE 12 19 29.88 1012 10 16.09344 0.01 0.254
4:53 pm 16:53 Cloudy 73 22.8 66 18.9 79 79 ENE 9 15 29.88 1012 10 16.09344 0.001 0.001
5:53 pm 17:53 Cloudy 73 22.8 66 18.9 79 79 ENE 9 15 29.88 1012 10 16.09344 0 0
6:53 pm 18:53 Cloudy 73 22.8 66 18.9 79 79 NE 8 13 29.88 1012 10 16.09344 0 0
7:53 pm 19:53 Cloudy 73 22.8 66 18.9 79 79 ENE 10 17 29.88 1012 10 16.09344 0 0
8:27 pm 20:27 Mostly Cloudy 72 22.2 65 18.3 79 79 ENE 9 15 29.91 1013 10 16.09344 0 0
8:53 pm 20:53 Cloudy 72 22.2 65 18.3 79 79 ENE 8 13 29.88 1012 10 16.09344 0 0
9:53 pm 21:53 Cloudy 71 21.7 65 18.3 81 81 NE 7 11 29.88 1012 10 16.09344 0 0
10:53 pm 22:53 Mostly Cloudy with Light Rain 70 21.1 65 18.3 84 84 ENE 9 15 29.88 1012 10 16.09344 0.001 0.001
11:53 pm 23:53 Mostly Cloudy with Light Rain 70 21.1 65 18.3 84 84 ENE 7 11 29.91 1013 10 16.09344 0.001 0.001

Powered by AerisWeather